Погода в Самандаге

Турция     36°05′01″N   35°58′37″E
темп.,
°C
ветер,
м/с
пор.,
м/с
влажн.,
%
обл.,
%
осадки,
мм/ч
давл.,
гПа
погр.,
м
17 августа, ср
ср1700:00+22з33820 0.0 1009166
03:00+22зюз23861 0.0 1008170
06:00+22зюз33854 0.0 1008192
09:00+26з44641 0.0 1008733
12:00+28з44540 0.0 1008732
15:00+28з45510 0.0 1006649
18:00+26зюз45610 0.0 1006413
21:00+23юз34780 0.0 1007168
18 августа, чт
чт1800:00+22юз34867 0.0 1007178
03:00+22юз458718 0.0 1006228
06:00+22юз348617 0.0 1006229
09:00+25зюз44682 0.0 1006630
12:00+28з45560 0.0 1006691
15:00+28зюз55520 0.0 1004661
18:00+26зюз46590 0.0 1004420
21:00+23юз45790 0.0 1005192
19 августа, пт
пт1900:00+22юз45834 0.0 1005199
03:00+22юз45856 0.0 1004220
06:00+22юз458820 0.0 1004233
09:00+25юз457029 0.0 1005686
12:00+28зюз55601 0.0 1005795
15:00+28зюз66590 0.0 1004753
18:00+26юз57660 0.0 1004511
21:00+23юз46832 0.0 1005223
20 августа, сб
сб2000:00+22юз35865 0.0 1005150
03:00+22юз349038 0.0 1005201
06:00+23зюз348845 0.1 1005275
09:00+25зюз347452 0.1 1005630
12:00+28з44615 0.0 1005733
15:00+29зюз55590 0.0 1004710
18:00+27юз56690 0.0 1004491
21:00+24юз468817 0.0 1005308
21 августа, вс
вс2100:00+23юз348716 0.0 1005209
03:00+23зюз239116 0.0 1004177
06:00+22юз228914 0.0 1004164
09:00+27зюз33680 0.0 1004537
12:00+29зюз45580 0.0 1004674
15:00+29зюз56540 0.0 1003657
18:00+27зюз46650 0.0 1004525
21:00+24юз358816 0.0 1005218